Notices

What's New in latest Release from April 7th, 2021:

- Updated Glossary, including Speed of Maximum Gust, and Total Hourly Precipitation

- Updated national and regional climate services offices contacts and prices information

- Addition of station inventory lists for 1981-2010, 1971-2000, and 1961-1990 Normals.

If you haven't already, please take our survey and provide feedback about our website: https://eccc.sondage-survey.ca/f/LanguageSelection.aspx?s=442ca660-fcf1-47c0-95a9-59707d6fd709

Hourly Data Report for December 23, 2004

TORONTO CITY
ONTARIO

43°40'00.000" N
79°24'00.000" W
112.50 m
6158355
71508
XTO

Download Data

Hourly Data (December 2004)
Hourly Data Report for December 23, 2004
TIME
LST
Temp Definition
°C
Dew Point Definition
°C
Rel Hum Definition
%
Precip. Amount Definition
mm

Wind Dir Definition
10's deg

Wind Spd Definition
km/h
Visibility Definition
km
Stn Press Definition
kPa
Hmdx Definition


Wind Chill Definition


Weather Definition


00:00 -2.5 -3.4 94   LegendMM LegendMM LegendMM 100.69     LegendNANA
01:00 -2.9 -3.6 95   LegendMM LegendMM LegendMM 100.56     LegendNANA
02:00 -2.8 -3.5 95   LegendMM LegendMM LegendMM 100.46     LegendNANA
03:00 -2.6 -3.2 96   LegendMM LegendMM LegendMM 100.31     LegendNANA
04:00 -2.6 -3.0 97   LegendMM LegendMM LegendMM 100.12     LegendNANA
05:00 -2.8 -3.2 97   LegendMM LegendMM LegendMM 99.79     LegendNANA
06:00 -2.8 -3.1 98   LegendMM LegendMM LegendMM 99.59     LegendNANA
07:00 -2.4 -2.7 98   LegendMM LegendMM LegendMM 99.33     LegendNANA
08:00 -1.2 -1.6 97   LegendMM LegendMM LegendMM 99.10     LegendNANA
09:00 -1.0 -1.3 98   LegendMM LegendMM LegendMM 98.80     LegendNANA
10:00 -0.7 -1.1 97   LegendMM LegendMM LegendMM 98.56     LegendNANA
11:00 -0.5 -1.0 96   LegendMM LegendMM LegendMM 98.48     LegendNANA
12:00 -1.8 -2.9 92   LegendMM LegendMM LegendMM 98.30     LegendNANA
13:00 -3.6 -5.1 89   LegendMM LegendMM LegendMM 98.59     LegendNANA
14:00 -5.3 -6.6 91   LegendMM LegendMM LegendMM 98.85     LegendNANA
15:00 -4.6 -7.2 82   LegendMM LegendMM LegendMM 99.16     LegendNANA
16:00 -4.6 -8.1 76   LegendMM LegendMM LegendMM 99.45     LegendNANA
17:00 -5.5 -9.1 76   LegendMM LegendMM LegendMM 99.75     LegendNANA
18:00 -6.8 -10.4 75   LegendMM LegendMM LegendMM 99.95     LegendNANA
19:00 -7.3 -10.7 77   LegendMM LegendMM LegendMM 100.14     LegendNANA
20:00 -7.1 -9.8 81   LegendMM LegendMM LegendMM 100.26     LegendNANA
21:00 -6.3 -8.7 83   LegendMM LegendMM LegendMM 100.36     LegendNANA
22:00 -6.3 -9.8 76   LegendMM LegendMM LegendMM 100.42     LegendNANA
23:00 -7.1 -10.5 77   LegendMM LegendMM LegendMM 100.50     LegendNANA

Notes on Data Quality.

Legend

  • E = Estimated
  • M = Missing
  • NA = Not Available*
  • [empty] = Indicates an unobserved value
Date modified: